Regional Weather Roundup
Issued by NWS

Home | Current Version | Previous Version | Graphics & Text | Print | Product List | Glossary On
Versions: 1 2 3 4 5 6 7 8 9 10 11 12 13 14 15 16 17 18 19 20 21 22 23 24 25 26 27 28 29 30 31 32 33 34 35 36 37 38 39 40 41 42 43 44 45 46 47 48 49 50
000
ASUS43 KMKX 241023
RWRWI

WISCONSIN REGIONAL WEATHER ROUNDUP
NATIONAL WEATHER SERVICE MILWAUKEE/SULLIVAN WI
500 AM CDT SUN MAY 24 2015

NOTE: "FAIR" INDICATES FEW OR NO CLOUDS BELOW 12,000 FEET WITH NO
SIGNIFICANT WEATHER AND/OR OBSTRUCTIONS TO VISIBILITY.

WIZ001-002-006>008-014>016-023>028-241100-
NORTHWEST WISCONSIN

CITY           SKY/WX    TMP DP  RH WIND       PRES   REMARKS
SUPERIOR ARPT  MOCLDY    46  44  91 CALM      30.13F
ASHLAND        CLOUDY    52  46  80 CALM      30.15S
HAYWARD        CLOUDY    54  47  77 CALM      30.15F
SIREN          CLOUDY    56  51  84 CALM      30.14F
CUMBERLAND     CLOUDY    55  48  76 NE3       30.14S
RICE LAKE      CLOUDY    56  52  88 CALM      30.16S
CHETEK         CLOUDY    56  52  86 CALM      30.14F
LADYSMITH      CLOUDY    58  47  66 E5        30.17S
EAU CLAIRE     NOT AVBL
MENOMONIE      CLOUDY    60  47  64 CALM      30.13F
NEW RICHMOND   CLOUDY    59  47  63 E3        30.11F
OSCEOLA        CLOUDY    56  55  97 CALM      30.13F
$$

WIZ003>005-009-010-017-018-241100-
NORTH CENTRAL WISCONSIN

CITY           SKY/WX    TMP DP  RH WIND       PRES   REMARKS
MANITOWISH WTR CLOUDY    53  50  88 CALM      30.18S
ARBOR VITAE    CLOUDY    57  51  80 CALM      30.18R
WOODRUFF       CLOUDY    57  51  80 CALM      30.18R
RHINELANDER    CLOUDY    55  49  80 CALM      30.19S
EAGLE RIVER    CLOUDY    55  45  69 CALM      30.18S
LAND O LAKES   CLOUDY    53  47  82 CALM      30.20R
PHILLIPS       CLOUDY    55  49  81 CALM      30.16S
TOMAHAWK       CLOUDY    50  48  91 CALM      30.18S
MEDFORD        CLOUDY    51  47  86 CALM      30.17S
MERRILL        CLOUDY    50  49  98 CALM      30.19S
$$

WIZ029-030-035-036-043>047-241100-
CENTRAL WISCONSIN

CITY           SKY/WX    TMP DP  RH WIND       PRES   REMARKS
WAUSAU         MOCLDY    55  48  77 CALM      30.15F
MOSINEE        MOCLDY    55  43  62 E3        30.18S
MARSHFIELD     CLOUDY    56  47  71 E6        30.15F
STEVENS POINT  MOCLDY    50  47  90 CALM      30.18S
WAUPACA        PTCLDY    52  48  84 CALM      30.17F
WAUTOMA        NOT AVBL
WISC RAPIDS    MOCLDY    55  44  66 CALM      30.17F
CAMP DOUGLAS   NOT AVBL
$$

WIZ011>013-019>022-031-037>040-048>050-241100-
NORTHEAST WISCONSIN

CITY           SKY/WX    TMP DP  RH WIND       PRES   REMARKS
ANTIGO         CLOUDY    55  50  83 CALM      30.19R
SHAWANO        CLOUDY    58  47  67 CALM      30.18S
OCONTO         CLOUDY    52  51  95 CALM      30.17S
STURGEON BAY   CLOUDY    59  39  47 S3        30.21R
GREEN BAY      MOCLDY    56  44  64 CALM      30.18S
MANITOWOC      NOT AVBL
APPLETON       PTCLDY    55  43  62 CALM      30.18F
CLINTONVILLE   CLOUDY    54  48  82 CALM      30.18S
OSHKOSH        PTCLDY    49  44  83 S5        30.17F
$$

WIZ032>034-041-042-053>061-241100-
SOUTHWEST WISCONSIN

CITY           SKY/WX    TMP DP  RH WIND       PRES   REMARKS
LA CROSSE      CLOUDY    58  49  72 SE8       30.10F
SPARTA         CLOUDY    51  48  91 CALM      30.14F
VIROQUA        CLOUDY    57  45  64 SE8       30.14F
BOSCOBEL       CLOUDY    56  51  84 CALM      30.14F
PRAIRIE DU CHI CLOUDY    57  50  77 E5        30.13S
PLATTEVILLE    CLOUDY    63  50  62 SE7       30.15S
$$

WIZ056-057-062-063-064-067-068-241100-
SOUTH CENTRAL WISCONSIN

CITY           SKY/WX    TMP DP  RH WIND       PRES   REMARKS
REEDSBURG      CLOUDY    52  49  90 CALM      30.15F
BARABOO/DELLS  CLOUDY    54  47  76 CALM      30.16F
LONE ROCK      NOT AVBL
MINERAL POINT  CLOUDY    63  46  55 SE5       30.15F
MADISON        CLOUDY    53  47  79 CALM      30.16F
MIDDLETON      CLOUDY    54  47  79 CALM      30.18S
WATERTOWN      MOCLDY    55  46  70 CALM      30.17F
MONROE         CLOUDY    59  50  72 SE6       30.17S
JANESVILLE     CLOUDY    59  46  63 CALM      30.17F
$$

WIZ051-052-058>065-066-070>072-241100-
SOUTHEAST WISCONSIN

CITY           SKY/WX    TMP DP  RH WIND       PRES   REMARKS
MILWAUKEE      MOCLDY    59  44  57 SW5       30.19F
WAUKESHA       MOCLDY    55  43  62 SW3       30.20F
MILWAUKEE/TIMM MOCLDY    54  43  66 CALM      30.20F
RACINE         MOCLDY    58  45  62 CALM      30.20F
BURLINGTON     MOCLDY    49  47  93 CALM      30.19F
KENOSHA        MOCLDY    54  46  74 CALM      30.19F
FOND DU LAC    MOCLDY    57  42  57 S3        30.18F
SHEBOYGAN      PTCLDY    47  41  80 CALM      30.19F
WEST BEND      MOCLDY    50  45  81 CALM      30.19F
JUNEAU         MOCLDY    56  45  65 CALM      30.20S
$$

LSZ147-162-241100-
LAKE SUPERIOR

STATION/POSITION TIME  TEMP    WIND        PRES    WAVE
                       AIR SEA DIR/SP/G            HT/PER
                 (UTC) (F)     (DEG/KT/KT) (MB)    (FT/S)
W MID LAKE BUOY  0850   43 36  220/ 12/ 12   N/A     1/ 3
DEVILS ISLAND    0900   58     230/ 12/ 13   N/A
PORT WING        0800   53     140/  3/  5   N/A
SAXON HARBOR     0800   51     200/  5/  7   N/A
$$

LMZ867-665-643>646-241100-
LAKE MICHIGAN

STATION/POSITION TIME  TEMP    WIND        PRES    WAVE
                       AIR SEA DIR/SP/G            HT/PER
                 (UTC) (F)     (DEG/KT/KT) (MB)    (FT/S)
CHAMBERS ISLAND  0800   61     180/  4/  7   N/A
N MID LAKE BUOY  0850   42 36  200/  8/ 10   N/A     1/ 4
NORTHPORT PIER   0900          130/  2/ 15   N/A
SISTER BAY       0902   63        CALM       N/A
KEWAUNEE LAKESHO 0900   51     170/  1/  4   N/A
SHEBOYGAN LAKESH 0900   53     160/  3/  3   N/A
PORT WASHINGTON  0940   49      CALM  /  2   N/A
ATWATER BUOY     0900   49 45   10/  2/  4   N/A
MILWAUKEE LAKESH 0900   52      90/  2/  2   N/A
S MID LAKE BUOY  0850   47 38  180/ 10/ 10   N/A     0
KENOSHA   LAKESH 0800   53     180/  8/  9   N/A
$$

TC  - TEMPERATURE IN CELSIUS
VSB - VISIBILITY IN STATUTE MILES
WCI - WIND CHILL INDEX
HX  - HEAT INDEX



USA.gov is the U.S. government's official web portal to all federal, state and local government web resources and services.